Location: Newark
(45.8667°N, 9.7333°E)
Time: 21:29:08
(UTC+00:00)

Explorer 7 - All Passes

Search period start: 22 January 2020 00:00
Search period end: 01 February 2020 00:00
Orbit: 485 x 679 km, 50.3° (Epoch: 22 January)

Date Brightness Start Highest point End Pass type
(mag) Time Alt. Az. Time Alt. Az. Time Alt. Az.
22 Jan - 01:39:29 10° WNW 01:43:07 43° N 01:46:52 10° ENE night (unlit)
22 Jan - 03:20:14 10° WNW 03:24:01 55° NNE 03:28:00 10° E visible
22 Jan - 05:00:43 10° WNW 05:04:31 47° SSW 05:08:33 10° SE visible
22 Jan - 22:23:51 10° SSW 22:27:06 28° SE 22:30:21 10° E night (unlit)
23 Jan - 00:03:36 10° WSW 00:07:21 70° NNW 00:11:09 10° ENE night (unlit)
23 Jan - 01:44:34 10° WNW 01:48:11 41° N 01:51:55 10° ENE night (unlit)
23 Jan - 03:25:10 10° WNW 03:29:02 70° NNE 03:33:04 10° ESE visible
23 Jan - 05:05:50 10° W 05:09:21 31° SW 05:13:03 10° SSE visible
23 Jan - 22:28:19 10° SW 22:31:54 43° SE 22:35:29 10° ENE night (unlit)
24 Jan - 00:08:39 10° W 00:12:20 54° NNW 00:16:06 10° ENE night (unlit)
24 Jan - 01:49:36 10° WNW 01:53:15 43° N 01:57:01 10° E night (unlit)
24 Jan - 03:30:07 10° WNW 03:33:59 87° SSW 03:38:03 10° ESE visible
24 Jan - 05:11:08 10° W 05:14:07 20° SW 05:17:12 10° S visible
24 Jan - 20:55:04 10° SSE 20:56:52 13° SE 20:58:39 10° ESE night (unlit)
24 Jan - 22:33:02 10° SW 22:36:45 67° SSE 22:40:30 10° ENE night (unlit)
25 Jan - 00:13:45 10° W 00:17:22 46° N 00:21:05 10° ENE night (unlit)
25 Jan - 01:54:36 10° WNW 01:58:18 48° NNE 02:02:07 10° E night (unlit)
25 Jan - 03:35:04 10° WNW 03:38:53 61° SSW 03:42:54 10° SE visible
25 Jan - 05:17:00 10° WSW 05:18:49 13° SW 05:20:42 10° SSW visible
25 Jan - 20:58:40 10° S 21:01:34 21° SE 21:04:26 10° E night (unlit)
25 Jan - 22:37:54 10° WSW 22:41:41 86° NNW 22:45:28 10° ENE night (unlit)
26 Jan - 00:18:51 10° WNW 00:22:27 42° N 00:26:06 10° ENE night (unlit)
26 Jan - 01:59:34 10° WNW 02:03:19 58° NNE 02:07:13 10° E night (unlit)
26 Jan - 03:40:06 10° WNW 03:43:45 40° SW 03:47:33 10° SE visible
26 Jan - 21:02:54 10° SSW 21:06:20 32° SE 21:09:43 10° ENE night (unlit)
26 Jan - 22:42:54 10° WSW 22:46:39 64° NNW 22:50:24 10° ENE night (unlit)
27 Jan - 00:23:55 10° WNW 00:27:30 41° N 00:31:09 10° ENE night (unlit)
27 Jan - 02:04:30 10° WNW 02:08:18 76° NNE 02:12:15 10° ESE night (unlit)
27 Jan - 03:45:16 10° W 03:48:33 26° SW 03:51:56 10° SSE visible
27 Jan - 21:07:27 10° SW 21:11:10 50° SSE 21:14:49 10° ENE night (unlit)
27 Jan - 22:47:58 10° W 22:51:40 51° NNW 22:55:21 10° ENE night (unlit)
28 Jan - 00:28:57 10° WNW 00:32:34 44° N 00:36:15 10° E night (unlit)
28 Jan - 02:09:27 10° WNW 02:13:15 78° SSW 02:17:11 10° ESE night (unlit)
28 Jan - 03:50:43 10° W 03:53:17 17° SW 03:55:55 10° S visible
28 Jan - 19:33:43 10° S 19:36:03 16° SE 19:38:22 10° E night (unlit)
28 Jan - 21:12:14 10° WSW 21:16:02 76° SSE 21:19:48 10° ENE night (unlit)
28 Jan - 22:53:04 10° W 22:56:42 44° N 23:00:20 10° ENE night (unlit)
29 Jan - 00:33:56 10° WNW 00:37:36 50° NNE 00:41:21 10° E night (unlit)
29 Jan - 02:14:25 10° WNW 02:18:08 53° SSW 02:21:58 10° SE night (unlit)
29 Jan - 03:57:24 10° SW 03:57:58 10° SW 03:58:33 10° SW night (unlit)
29 Jan - 19:37:36 10° SSW 19:40:47 24° SE 19:43:54 10° E night (unlit)
29 Jan - 21:17:10 10° WSW 21:20:58 78° NNW 21:24:44 10° ENE night (unlit)
29 Jan - 22:58:10 10° WNW 23:01:46 41° N 23:05:21 10° ENE night (unlit)
30 Jan - 00:38:53 10° WNW 00:42:37 62° NNE 00:46:26 10° E night (unlit)
30 Jan - 02:19:29 10° WNW 02:22:58 34° SW 02:26:33 10° SSE night (unlit)
30 Jan - 19:41:56 10° SSW 19:45:34 38° SE 19:49:05 10° ENE visible
30 Jan - 21:22:11 10° W 21:25:57 59° NNW 21:29:40 10° ENE night (unlit)
30 Jan - 23:03:14 10° WNW 23:06:49 41° N 23:10:26 10° ENE night (unlit)
31 Jan - 00:43:49 10° WNW 00:47:35 83° NNE 00:51:26 10° ESE night (unlit)
31 Jan - 02:24:44 10° W 02:27:44 22° SW 02:30:49 10° S night (unlit)
31 Jan - 18:09:11 10° SSE 18:10:32 11° SE 18:11:51 10° ESE visible
31 Jan - 19:46:35 10° SW 19:50:25 58° SSE 19:54:08 10° ENE visible
31 Jan - 21:27:15 10° W 21:30:58 48° NNW 21:34:38 10° ENE night (unlit)
31 Jan - 23:08:15 10° WNW 23:11:53 45° N 23:15:31 10° E night (unlit)
